Waskish, MN

12:33 PM CDT on March 27, 2017 (GMT -0500)
Waskish Municipal

Weather History for KVWU - January, 2014

Change the Weather History Date:

Tuesday, January 28, 2014

  Actual Average (KBDE) Record (KBDE)
Temperature  
Mean Temperature -16 °F -  
Max Temperature -7 °F 16 °F 39 °F (1992)
Min Temperature -25 °F -5 °F -42 °F (1966)
Degree Days  
Heating Degree Days 81    
Moisture  
Dew Point -21 °F    
Average Humidity 76    
Maximum Humidity 84    
Minimum Humidity 64    
Precipitation  
Precipitation 0.00 in - - ()
Sea Level Pressure  
Sea Level Pressure 30.05 in    
Wind  
Wind Speed 11 mph (SW)    
Max Wind Speed 21 mph    
Max Gust Speed 25 mph    
Visibility 9 miles    
Events      
Averages and records for this station are not official NWS values.
T = Trace of Precipitation, MM = Missing Value Source: NWS Daily Summary

Daily Weather History Graph

Daily Weather History Graph

Search for Another Location

Airport or City:

Trip Planner

Search our weather history database for the weather conditions in past years. The results will help you decide how hot, cold, wet, or windy it might be!

Date:

Astronomy

Jan. 28, 2014 Rise Set
Actual Time 7:51 AM CST 5:11 PM CST
Civil Twilight 7:17 AM CST 5:45 PM CST
Nautical Twilight 6:39 AM CST 6:23 PM CST
Astronomical Twilight 6:03 AM CST 6:59 PM CST
Moon 5:36 AM CST (1/28) 2:59 PM CST (1/28)
Length of Visible Light 10h 28m
Length of Day
9h 20m
Waning Crescent, 7% of the Moon is Illuminated
Jan 28
Waning Crescent
Jan 30
New
Feb 6
First Quarter
Feb 14
Full
Feb 22
Last Quarter

Hourly Weather History & Observations

Time (CST) Temp. Windchill Dew Point Humidity Pressure Visibility Wind Dir Wind Speed Gust Speed Precip Events Conditions
12:10 AM -22.0 °F -43.6 °F -27.4 °F 76% 30.21 in 10.0 mi SW 10.4 mph - N/A   Clear
12:29 AM -22.0 °F -42.3 °F -27.4 °F 76% 30.21 in 10.0 mi SW 9.2 mph - N/A   Clear
12:50 AM -23.8 °F -45.8 °F -27.4 °F 83% 30.20 in 10.0 mi SW 10.4 mph - N/A   Clear
1:10 AM -22.0 °F -44.7 °F -27.4 °F 76% 30.20 in 10.0 mi SW 11.5 mph - N/A   Clear
1:29 AM -23.8 °F -45.8 °F -27.4 °F 83% 30.20 in 10.0 mi SW 10.4 mph - N/A   Clear
1:50 AM -23.8 °F -45.8 °F -29.2 °F 76% 30.19 in 10.0 mi SW 10.4 mph - N/A   Clear
2:10 AM -23.8 °F -44.5 °F -29.2 °F 76% 30.19 in 10.0 mi SW 9.2 mph - N/A   Clear
2:30 AM -23.8 °F -44.5 °F -29.2 °F 76% 30.18 in 10.0 mi SW 9.2 mph - N/A   Clear
2:50 AM -23.8 °F -44.5 °F -29.2 °F 76% 30.18 in 10.0 mi SW 9.2 mph - N/A   Clear
3:09 AM -23.8 °F -45.8 °F -29.2 °F 76% 30.17 in 10.0 mi WSW 10.4 mph - N/A   Clear
3:30 AM -23.8 °F -44.5 °F -29.2 °F 76% 30.17 in 10.0 mi SW 9.2 mph - N/A   Clear
3:50 AM -23.8 °F -44.5 °F -29.2 °F 76% 30.16 in 10.0 mi SW 9.2 mph - N/A   Clear
4:09 AM -23.8 °F -43.2 °F -29.2 °F 76% 30.16 in 10.0 mi SW 8.1 mph - N/A   Clear
4:30 AM -25.6 °F - -31.0 °F 76% 30.16 in 10.0 mi Calm Calm - N/A   Clear
4:50 AM -25.6 °F -45.4 °F -31.0 °F 76% 30.16 in 10.0 mi SW 8.1 mph - N/A   Clear
5:10 AM -25.6 °F -46.8 °F -31.0 °F 76% 30.16 in 10.0 mi SW 9.2 mph - N/A   Clear
5:30 AM -25.6 °F -46.8 °F -31.0 °F 76% 30.15 in 10.0 mi SW 9.2 mph - N/A   Clear
5:50 AM -25.6 °F -46.8 °F -31.0 °F 76% 30.14 in 10.0 mi SW 9.2 mph - N/A   Clear
6:10 AM -23.8 °F -46.9 °F -29.2 °F 76% 30.13 in 10.0 mi SW 11.5 mph - N/A   Clear
6:29 AM -23.8 °F -44.5 °F -29.2 °F 76% 30.13 in 10.0 mi SW 9.2 mph - N/A   Clear
6:50 AM -23.8 °F -45.8 °F -29.2 °F 76% 30.12 in 10.0 mi SW 10.4 mph - N/A   Clear
7:10 AM -23.8 °F -45.8 °F -29.2 °F 76% 30.12 in 10.0 mi SW 10.4 mph - N/A   Clear
7:30 AM -23.8 °F -44.5 °F -29.2 °F 76% 30.12 in 10.0 mi SW 9.2 mph - N/A   Clear
7:50 AM -23.8 °F -45.8 °F -29.2 °F 76% 30.12 in 10.0 mi SW 10.4 mph - N/A   Clear
8:09 AM -23.8 °F -45.8 °F -27.4 °F 83% 30.12 in 10.0 mi SW 10.4 mph - N/A   Clear
8:30 AM -22.0 °F -42.3 °F -27.4 °F 76% 30.13 in 10.0 mi SW 9.2 mph - N/A   Clear
8:50 AM -22.0 °F -43.6 °F -27.4 °F 76% 30.12 in 10.0 mi SW 10.4 mph - N/A   Clear
9:09 AM -20.2 °F -41.3 °F -25.6 °F 76% 30.11 in 10.0 mi SW 10.4 mph - N/A   Clear
9:30 AM -20.2 °F -43.4 °F -25.6 °F 76% 30.11 in 10.0 mi SW 12.7 mph - N/A   Clear
9:50 AM -20.2 °F -41.3 °F -25.6 °F 76% 30.10 in 10.0 mi WSW 10.4 mph - N/A   Clear
10:09 AM -18.4 °F -41.2 °F -23.8 °F 76% 30.09 in 10.0 mi SW 12.7 mph - N/A   Clear
10:30 AM -18.4 °F -41.2 °F -23.8 °F 76% 30.09 in 10.0 mi SW 12.7 mph - N/A   Clear
10:50 AM -14.8 °F -37.5 °F -22.0 °F 70% 30.09 in 10.0 mi SW 13.8 mph - N/A   Clear
11:09 AM -14.8 °F -36.6 °F -20.2 °F 77% 30.09 in 10.0 mi SW 12.7 mph - N/A   Clear
11:30 AM -14.8 °F -34.6 °F -20.2 °F 77% 30.08 in 10.0 mi SW 10.4 mph - N/A   Clear
11:50 AM -13.0 °F -35.2 °F -20.2 °F 70% 30.07 in 10.0 mi SW 13.8 mph - N/A   Scattered Clouds
12:09 PM -11.2 °F -32.1 °F -20.2 °F 64% 30.06 in 10.0 mi SW 12.7 mph - N/A   Mostly Cloudy
12:30 PM -11.2 °F -32.1 °F -18.4 °F 70% 30.05 in 10.0 mi SW 12.7 mph 18.4 mph N/A   Overcast
12:50 PM -11.2 °F -34.4 °F -18.4 °F 70% 30.04 in 10.0 mi SW 16.1 mph - N/A   Overcast
1:09 PM -9.4 °F -32.1 °F -18.4 °F 65% 30.04 in 10.0 mi SW 16.1 mph 20.7 mph N/A   Overcast
1:30 PM -11.2 °F -35.2 °F -18.4 °F 70% 30.03 in 7.0 mi SW 17.3 mph 23.0 mph N/A   Overcast
1:50 PM -9.4 °F -33.5 °F -16.6 °F 71% 30.02 in 5.0 mi SW 18.4 mph 24.2 mph N/A   Haze
2:09 PM -9.4 °F -32.1 °F -16.6 °F 71% 30.01 in 5.0 mi SW 16.1 mph 21.9 mph N/A   Haze
2:30 PM -9.4 °F -33.5 °F -16.6 °F 71% 30.01 in 7.0 mi WSW 18.4 mph - N/A   Overcast
2:50 PM -9.4 °F -31.4 °F -16.6 °F 71% 30.00 in 5.0 mi WSW 15.0 mph 23.0 mph N/A   Haze
3:09 PM -9.4 °F -32.8 °F -16.6 °F 71% 30.00 in 7.0 mi SW 17.3 mph 23.0 mph N/A   Overcast
3:30 PM -9.4 °F -32.1 °F -16.6 °F 71% 30.00 in 10.0 mi WSW 16.1 mph 21.9 mph N/A   Overcast
3:50 PM -9.4 °F -32.8 °F -14.8 °F 77% 30.00 in 7.0 mi SW 17.3 mph 21.9 mph N/A   Overcast
4:09 PM -9.4 °F -32.8 °F -14.8 °F 77% 29.99 in 5.0 mi SW 17.3 mph 21.9 mph N/A   Haze
4:30 PM -9.4 °F -33.5 °F -14.8 °F 77% 29.98 in 5.0 mi SW 18.4 mph 25.3 mph N/A   Haze
4:50 PM -7.6 °F -31.1 °F -14.8 °F 71% 29.98 in 4.0 mi SW 18.4 mph - N/A   Haze
5:09 PM -7.6 °F -32.3 °F -14.8 °F 71% 29.98 in 4.0 mi SW 20.7 mph - N/A   Haze
5:30 PM -7.6 °F -28.3 °F -14.8 °F 71% 29.97 in 10.0 mi WSW 13.8 mph - N/A   Overcast
5:49 PM -7.6 °F -28.3 °F -14.8 °F 71% 29.97 in 10.0 mi SW 13.8 mph - N/A   Mostly Cloudy
6:10 PM -9.4 °F -29.8 °F -14.8 °F 77% 29.95 in 10.0 mi SW 12.7 mph 19.6 mph N/A   Clear
6:30 PM -9.4 °F -28.9 °F -14.8 °F 77% 29.95 in 10.0 mi SW 11.5 mph - N/A   Clear
6:49 PM -9.4 °F -30.6 °F -14.8 °F 77% 29.94 in 10.0 mi SW 13.8 mph - N/A   Clear
7:10 PM -7.6 °F -29.1 °F -14.8 °F 71% 29.93 in 10.0 mi SW 15.0 mph 18.4 mph N/A   Clear
7:30 PM -7.6 °F -29.1 °F -14.8 °F 71% 29.92 in 10.0 mi SW 15.0 mph - N/A   Clear
7:49 PM -7.6 °F -28.3 °F -13.0 °F 77% 29.91 in 10.0 mi SW 13.8 mph - N/A   Clear
8:10 PM -7.6 °F -28.3 °F -13.0 °F 77% 29.90 in 10.0 mi SW 13.8 mph - N/A   Clear
8:30 PM -7.6 °F -26.6 °F -13.0 °F 77% 29.89 in 10.0 mi SW 11.5 mph - N/A   Clear
8:49 PM -9.4 °F -28.9 °F -14.8 °F 77% 29.88 in 10.0 mi SW 11.5 mph - N/A   Clear
9:10 PM -7.6 °F -28.3 °F -11.2 °F 84% 29.88 in 10.0 mi SW 13.8 mph - N/A   Clear
9:30 PM -7.6 °F -29.1 °F -11.2 °F 84% 29.87 in 10.0 mi SW 15.0 mph 19.6 mph N/A   Clear
9:49 PM -7.6 °F -28.3 °F -11.2 °F 84% 29.88 in 10.0 mi SW 13.8 mph - N/A   Clear
10:10 PM -7.6 °F -28.3 °F -11.2 °F 84% 29.87 in 10.0 mi SW 13.8 mph - N/A   Clear
10:30 PM -7.6 °F -27.5 °F -11.2 °F 84% 29.86 in 10.0 mi SW 12.7 mph - N/A   Clear
10:49 PM -7.6 °F -28.3 °F -11.2 °F 84% 29.86 in 10.0 mi SW 13.8 mph - N/A   Clear
11:10 PM -7.6 °F -28.3 °F -11.2 °F 84% 29.86 in 10.0 mi SW 13.8 mph - N/A   Clear
11:30 PM -7.6 °F -27.5 °F -11.2 °F 84% 29.86 in 10.0 mi SW 12.7 mph - N/A   Clear
11:49 PM -7.6 °F -26.6 °F -13.0 °F 77% 29.85 in 10.0 mi SW 11.5 mph - N/A   Clear